[[{"header":{"parameterUnit":"m.s-1","parameterCategory":1,"la1":30.2991,"la2":30.254,"lo1":-89.0895,"lo2":-89.0444,"dy":0.0017,"dx":0.0017,"nx":28,"ny":28,"refTime":"2025-01-15T03:00:00:Z","depth":0,"parameterNumber":2,"parameterNumberName":"U-component_of_WINDS"},"data":[0,0,0,0,0,0,0,0,0,0,0,0,0,0,0,0,0,0,0,0,0,0,0,0,0,0,0,0,0,0,0,0,0,0,0,0,0,0,0,0,0,0,0,0,0,0,0,0,0,0,0,0,0,0,0,0,0,0,0.0419,0.0419,0,0.0358,0.0358,0.0357,0.0371,0.0372,0.0373,0.0374,0.0305,0.0302,0.0299,0,0,0,0,0,0,0,0,0,0,0,0,0,0.0541,0.0539,0.0419,0.0419,0.0418,0.0358,0.0358,0.0357,0.037,0.0372,0.0373,0.0375,0.0306,0.0302,0.0299,0,0,0,0,0,0,0,0,0,0,0,0,0,0.0485,0.0538,0.0419,0.0418,0.0417,0.0359,0.0358,0.0357,0.037,0.0372,0.0374,0.0375,0.0307,0.0303,0.0298,0.0236,0,0,0.0285,0.0283,0,0,0,0,0,0,0,0,0.0488,0.048,0.0419,0.0418,0.0417,0.0374,0.0375,0.0316,0.037,0.0388,0.0374,0.0376,0.0326,0.032,0.0305,0.0233,0.023,0.0284,0.0282,0.028,0.0279,0,0,0,0,0,0,0,0.0492,0.0483,0.0395,0.0418,0.0416,0.0418,0.0412,0.0364,0.0347,0.0386,0.0387,0.038,0.0326,0.0309,0.0303,0.0229,0.0285,0.0281,0.0278,0.0276,0.0102,0.01,0,0,0,0,0,0,0.0498,0.0486,0.0397,0.0393,0.0458,0.0414,0.0407,0.0386,0.0348,0.0344,0.0379,0.0381,0.0315,0.0308,0.0301,0.0224,0.028,0.0276,0.0273,0.0104,0.0101,0.0099,0,0,0,0,0,0,0.05,0.049,0.0399,0.044,0.0429,0.041,0.0386,0.0384,0.0367,0.0342,0.0339,0.0365,0.0317,0.0307,0.0252,0.0222,0.0274,0.027,0.0106,0.0103,0.01,0.0072,0,0,0,0,0,0,0.0504,0.049,0.0468,0.0439,0.0426,0.0354,0.0384,0.0381,0.036,0.0362,0.0328,0.0324,0.0317,0.0259,0.0248,0.0217,0.0266,0.0109,0.0105,0.0101,0.0075,0.0068,0.0062,0,0,0,0,0,0.0508,0.0461,0.0467,0.0456,0.0398,0.0352,0.0344,0.0339,0.0358,0.0334,0.0318,0.0325,0.0228,0.0253,0.0241,0.0208,0.0111,0.0106,0.0102,0.0078,0.0069,0.0062,0,0,0,0,0,0,0.0483,0.0457,0.0463,0.0406,0.0382,0.0354,0.0324,0.033,0.0298,0.0301,0.0294,0.0286,0.023,0.0214,0.0243,0.0146,0.0172,0.0164,0.0158,0.0149,0.0143,0.0147,0.0263,0,0,0,0,0,0.0472,0.0439,0.0417,0.0368,0.0356,0.0342,0.0322,0.032,0.0293,0.0282,0.0263,0.0234,0.0197,0.0173,0.0138,0.0074,0.0065,0.0045,0.0039,0.0034,0.0026,-0.001,-0.0019,0.0085,0.0085,0.0085,0,0,0.0447,0.0428,0.0407,0.0363,0.0344,0.0307,0.0333,0.0294,0.0266,0.0275,0.0223,0.0208,0.0176,0.0116,0.0089,0.0101,-0.0003,0.0028,0.0024,0.002,-0.0015,-0.0025,-0.0034,0.0082,0.0082,0.0083,0,0,0.0382,0.0366,0.0323,0.0304,0.0275,0.0267,0.0257,0.0229,0.022,0.0168,0.0174,0.014,0.0077,0.0054,0.0034,-0.0038,-0.0034,-0.005,-0.0085,-0.012,-0.0129,-0.0136,-0.0164,-0.0173,-0.0056,-0.0056,-0.0056,0,0.0353,0.0301,0.03,0.026,0.0239,0.025,0.0205,0.0186,0.0146,0.0131,0.0146,0.0067,0.0046,-0.0019,-0.0037,-0.0053,-0.0066,-0.0047,-0.0127,-0.0134,-0.0141,-0.0168,-0.0178,-0.0058,-0.0058,-0.0058,-0.0057,0,0.0266,0.0229,0.0198,0.0162,0.0139,0.0096,0.0087,0.0063,0.0064,0.0053,-0.0001,-0.0025,-0.0065,-0.008,-0.0081,-0.0146,-0.0138,-0.0125,-0.0099,-0.0153,-0.0178,-0.0188,-0.0061,-0.006,-0.006,-0.0059,0,0,0.0181,0.0147,0.0135,0.0119,0.0089,0.006,0.0018,-0.0019,-0.0041,-0.0068,-0.0105,-0.0158,-0.0146,-0.0169,-0.0171,-0.0202,-0.026,-0.0185,-0.0186,-0.02,-0.0335,-0.0346,-0.0358,-0.0255,-0.0257,-0.0259,-0.0333,0,0.0112,0.0041,0.0039,-0.0028,-0.0063,-0.0053,-0.009,-0.0113,-0.0124,-0.0157,-0.0169,-0.0207,-0.0187,-0.0201,-0.023,-0.0246,-0.0287,-0.0241,-0.0292,-0.0294,-0.0287,-0.0371,-0.0383,-0.0452,-0.0343,-0.0344,-0.0345,0,0.0021,-0.0006,-0.0076,-0.0101,-0.0116,-0.0148,-0.0183,-0.0213,-0.024,-0.0246,-0.027,-0.0268,-0.0313,-0.0284,-0.0347,-0.0315,-0.0336,-0.0347,-0.035,-0.0357,-0.0325,-0.0383,-0.0474,-0.0485,-0.0361,-0.0359,-0.0358,0,-0.0036,-0.0091,-0.0139,-0.0154,-0.0183,-0.0207,-0.0221,-0.0245,-0.0267,-0.0298,-0.0313,-0.0348,-0.0369,-0.0398,-0.0406,-0.0384,-0.047,-0.0441,-0.0478,-0.0478,-0.0499,-0.0498,-0.0598,-0.0509,-0.0508,-0.0508,-0.0508,0,-0.0115,-0.0158,-0.0165,-0.0196,-0.0245,-0.0246,-0.0296,-0.0308,-0.033,-0.0364,-0.0358,-0.039,-0.0398,-0.0433,-0.044,-0.0492,-0.0501,-0.0509,-0.0511,-0.0511,-0.051,-0.0527,-0.0523,-0.0511,-0.051,-0.051,-0.0509,0,-0.0188,-0.0194,-0.0247,-0.027,-0.0277,-0.0312,-0.0332,-0.0363,-0.0371,-0.0415,-0.0425,-0.044,-0.0481,-0.0491,-0.054,-0.0545,-0.0607,-0.0603,-0.0598,-0.0598,-0.0636,-0.0633,-0.0752,-0.0768,-0.0666,-0.0666,-0.0667,0,-0.0239,-0.0272,-0.0297,-0.0319,-0.0333,-0.0367,-0.0389,-0.0392,-0.0416,-0.0448,-0.0475,-0.0514,-0.0545,-0.0611,-0.0628,-0.0665,-0.0664,-0.0702,-0.067,-0.0669,-0.0667,-0.0666,-0.067,-0.071,-0.0711,-0.0712,-0.0713,0,-0.033,-0.0331,-0.0361,-0.0393,-0.0419,-0.0445,-0.0469,-0.0488,-0.0494,-0.0521,-0.0561,-0.0585,-0.0634,-0.0674,-0.0711,-0.0728,-0.0723,-0.0722,-0.0733,-0.0735,-0.0731,-0.0736,-0.0617,-0.072,-0.0719,-0.0719,-0.0719,-0.0718,-0.0395,-0.0424,-0.0446,-0.0481,-0.0499,-0.0522,-0.0551,-0.0563,-0.0595,-0.0634,-0.0634,-0.0678,-0.0704,-0.0754,-0.0772,-0.0808,-0.0797,-0.0812,-0.0816,-0.0821,-0.0825,-0.0723,-0.0815,-0.0814,-0.0814,-0.0814,-0.0814,0,-0.0488,-0.0501,-0.0532,-0.0566,-0.0593,-0.0581,-0.0608,-0.0633,-0.0671,-0.0695,-0.0725,-0.0771,-0.081,-0.0828,-0.0866,-0.0892,-0.089,-0.0902,-0.0902,-0.0906,-0.0832,-0.082,-0.0903,-0.0903,-0.0902,-0.0902,-0.0902,-0.0902,-0.0539,-0.0588,-0.0591,-0.065,-0.0663,-0.0704,-0.0721,-0.0742,-0.0761,-0.0813,-0.0843,-0.0854,-0.0876,-0.0916,-0.0951,-0.0956,-0.0971,-0.0985,-0.0989,-0.092,-0.0911,-0.0903,-0.0891,-0.0987,-0.0988,-0.106,-0.106,-0.1061]},{"header":{"parameterUnit":"m.s-1","parameterCategory":1,"la1":30.2991,"la2":30.254,"lo1":-89.0895,"lo2":-89.0444,"dy":0.0017,"dx":0.0017,"nx":28,"ny":28,"refTime":"2025-01-15T03:00:00:Z","depth":0,"parameterNumber":3,"parameterNumberName":"V-component_of_WINDS"},"data":[0,0,0,0,0,0,0,0,0,0,0,0,0,0,0,0,0,0,0,0,0,0,0,0,0,0,0,0,0,0,0,0,0,0,0,0,0,0,0,0,0,0,0,0,0,0,0,0,0,0,0,0,0,0,0,0,0,0,-3.9899,-3.99,0,-3.9976,-3.9976,-3.9977,-3.989,-3.9886,-3.9883,-3.988,-3.9957,-3.9962,-3.9967,0,0,0,0,0,0,0,0,0,0,0,0,0,-3.9676,-3.968,-3.9899,-3.99,-3.9901,-3.9975,-3.9976,-3.9978,-3.989,-3.9886,-3.9882,-3.9878,-3.9955,-3.9961,-3.9967,0,0,0,0,0,0,0,0,0,0,0,0,0,-3.9765,-3.9682,-3.9899,-3.9866,-3.9864,-3.9975,-3.9977,-3.9978,-3.9891,-3.9886,-3.9881,-3.9876,-3.9953,-3.9961,-3.9968,-4.0115,0,0,-3.9992,-3.9995,0,0,0,0,0,0,0,0,-3.976,-3.9773,-3.987,-3.9869,-3.9866,-3.9918,-3.9926,-4.0024,-3.9892,-3.9881,-3.988,-3.9874,-3.9948,-3.9956,-3.9981,-4.0118,-4.0121,-3.9992,-3.9997,-4.0,-4.0002,0,0,0,0,0,0,0,-3.9754,-3.9769,-3.9929,-3.9872,-3.9869,-3.9847,-3.9855,-3.9944,-3.9941,-3.9881,-3.9875,-3.9886,-3.9946,-3.9974,-3.9982,-4.0123,-3.9992,-3.9999,-4.0004,-4.0007,-4.0385,-4.039,0,0,0,0,0,0,-3.9751,-3.9765,-3.9927,-3.9931,-3.98,-3.9856,-3.9864,-3.9906,-3.994,-3.994,-3.989,-3.9881,-3.9963,-3.9973,-3.9984,-4.0159,-4.0,-4.0007,-4.0012,-4.038,-4.0386,-4.0392,0,0,0,0,0,0,-3.9747,-3.9767,-3.9924,-3.9846,-3.9865,-3.9865,-3.9914,-3.9911,-3.9938,-3.9946,-3.9945,-3.9919,-3.9959,-3.9974,-4.0083,-4.0161,-4.0011,-4.0018,-4.0373,-4.0382,-4.0389,-4.051,0,0,0,0,0,0,-3.9741,-3.9766,-3.9822,-3.9848,-3.9869,-4.0022,-3.9918,-3.9916,-3.9952,-3.9942,-3.9973,-3.9974,-3.9957,-4.0072,-4.0091,-4.0169,-4.0024,-4.0366,-4.0377,-4.0387,-4.0499,-4.0521,-4.054,0,0,0,0,0,-3.9733,-3.9852,-3.9825,-3.9845,-3.9939,-4.0027,-4.0039,-4.0017,-3.9958,-4.0015,-4.002,-3.9973,-4.0149,-4.0084,-4.0105,-4.0186,-4.0362,-4.0374,-4.0386,-4.049,-4.0517,-4.054,0,0,0,0,0,0,-3.9833,-3.9855,-3.9825,-3.9956,-3.999,-4.0012,-4.0082,-4.0046,-4.0098,-4.0086,-4.0056,-4.0064,-4.0181,-4.0194,-4.0122,-4.033,-4.0246,-4.0262,-4.0318,-4.0343,-4.0364,-4.0359,-4.003,0,0,0,0,0,-3.9871,-3.994,-3.9955,-4.0069,-4.0088,-4.0082,-4.0119,-4.01,-4.0134,-4.0148,-4.0161,-4.0196,-4.0259,-4.0302,-4.036,-4.05,-4.0506,-4.0566,-4.0586,-4.0603,-4.0619,-4.0695,-4.0722,-4.0433,-4.0432,-4.0432,0,0,-3.9949,-3.9969,-4.0014,-4.009,-4.0114,-4.0187,-4.0095,-4.0176,-4.023,-4.016,-4.0266,-4.0276,-4.0313,-4.0439,-4.0495,-4.0453,-4.07,-4.0619,-4.0632,-4.0639,-4.0711,-4.0738,-4.0763,-4.0441,-4.0439,-4.0438,0,0,-4.0128,-4.015,-4.0248,-4.0275,-4.0313,-4.0309,-4.0332,-4.036,-4.0365,-4.047,-4.042,-4.0483,-4.0592,-4.0621,-4.065,-4.0841,-4.08,-4.0861,-4.0969,-4.1044,-4.1067,-4.1087,-4.1157,-4.1182,-4.0876,-4.0876,-4.0876,0,-4.022,-4.0329,-4.0303,-4.0388,-4.0423,-4.0364,-4.0464,-4.049,-4.0546,-4.0571,-4.0523,-4.066,-4.0681,-4.0814,-4.0861,-4.0885,-4.0912,-4.0858,-4.1066,-4.1086,-4.1104,-4.1171,-4.1197,-4.0883,-4.0883,-4.0882,-4.0881,0,-4.0441,-4.0517,-4.0591,-4.0648,-4.0691,-4.0783,-4.0771,-4.0817,-4.0794,-4.0795,-4.0903,-4.0926,-4.0989,-4.1018,-4.0995,-4.1148,-4.1121,-4.107,-4.0985,-4.1139,-4.1202,-4.1227,-4.0894,-4.0891,-4.0889,-4.0887,0,0,-4.0687,-4.0728,-4.0756,-4.0782,-4.082,-4.0878,-4.0967,-4.1029,-4.1071,-4.111,-4.1185,-4.1279,-4.1233,-4.1266,-4.1246,-4.1311,-4.1464,-4.1252,-4.1252,-4.1293,-4.1636,-4.1676,-4.1706,-4.1436,-4.1441,-4.1444,-4.1633,0,-4.0869,-4.1024,-4.1004,-4.1153,-4.1224,-4.1169,-4.1247,-4.1279,-4.1282,-4.1342,-4.1344,-4.1412,-4.1344,-4.1364,-4.1427,-4.1432,-4.1533,-4.1418,-4.1506,-4.151,-4.1502,-4.1738,-4.178,-4.1957,-4.1657,-4.1661,-4.1664,0,-4.1102,-4.1152,-4.1309,-4.1337,-4.1366,-4.1437,-4.1493,-4.155,-4.1586,-4.1583,-4.1621,-4.1589,-4.1679,-4.1591,-4.1715,-4.1637,-4.1672,-4.168,-4.1686,-4.1695,-4.1598,-4.1756,-4.2013,-4.2041,-4.1702,-4.1699,-4.1696,0,-4.1269,-4.1374,-4.1482,-4.1506,-4.1541,-4.1592,-4.1609,-4.1639,-4.1678,-4.1727,-4.1752,-4.181,-4.1842,-4.1888,-4.1873,-4.181,-4.2001,-4.1911,-4.2002,-4.2003,-4.2047,-4.2045,-4.2316,-4.2065,-4.2065,-4.2064,-4.2064,0,-4.1475,-4.1574,-4.1558,-4.1625,-4.1734,-4.1709,-4.1818,-4.1828,-4.1855,-4.1923,-4.1878,-4.1942,-4.1918,-4.1981,-4.1969,-4.2075,-4.2089,-4.209,-4.2086,-4.2096,-4.2096,-4.212,-4.2108,-4.2071,-4.207,-4.2069,-4.2067,0,-4.168,-4.1674,-4.1788,-4.1812,-4.1821,-4.1901,-4.1921,-4.1984,-4.1983,-4.207,-4.2088,-4.2087,-4.2159,-4.2149,-4.2228,-4.222,-4.2353,-4.2332,-4.2342,-4.2338,-4.243,-4.2423,-4.2728,-4.2768,-4.249,-4.2492,-4.2494,0,-4.1814,-4.1889,-4.1922,-4.1964,-4.1985,-4.2054,-4.2094,-4.2072,-4.2116,-4.2162,-4.222,-4.2288,-4.2341,-4.2459,-4.2465,-4.2526,-4.2509,-4.2611,-4.2517,-4.2525,-4.2513,-4.251,-4.2518,-4.2631,-4.2634,-4.2636,-4.2638,0,-4.2053,-4.2046,-4.2105,-4.2165,-4.2214,-4.226,-4.23,-4.2338,-4.2319,-4.2371,-4.2444,-4.2486,-4.2568,-4.2637,-4.2694,-4.2711,-4.2673,-4.2668,-4.2692,-4.2704,-4.2707,-4.2709,-4.2395,-4.2661,-4.2659,-4.2657,-4.2656,-4.2655,-4.2228,-4.2292,-4.2326,-4.2395,-4.2423,-4.2462,-4.2523,-4.2531,-4.2592,-4.2658,-4.264,-4.2724,-4.2758,-4.2831,-4.2854,-4.292,-4.2882,-4.2917,-4.2926,-4.2936,-4.2949,-4.2695,-4.2929,-4.2929,-4.2928,-4.2928,-4.2927,0,-4.2466,-4.2485,-4.2548,-4.2607,-4.2662,-4.262,-4.2663,-4.2712,-4.2786,-4.2821,-4.2875,-4.296,-4.3027,-4.3038,-4.3102,-4.3152,-4.3136,-4.317,-4.3167,-4.3172,-4.2977,-4.2951,-4.3181,-4.3181,-4.3181,-4.3181,-4.3181,-4.3181,-4.2597,-4.2705,-4.2702,-4.2824,-4.2841,-4.2924,-4.2953,-4.2989,-4.3017,-4.3115,-4.317,-4.3177,-4.3203,-4.3268,-4.3327,-4.3329,-4.3356,-4.3397,-4.3392,-4.321,-4.3185,-4.3161,-4.3136,-4.3402,-4.3402,-4.3581,-4.3583,-4.3584]}]]